DRAUGEN current weather conditions

sailwx.info

Wind from 250 at 7 knots

Air temperature 18.0° C
Dewpoint 17.0° C

Last reported at 2014-Jul-23 03:20 UTC.
Time now 2014-Jul-23 05:16 UTC

Location: N 64°22' E 007°47'.
View on Google Maps.

See reports from other nearby stations

  
Tides and Currents Weather Stations Pressure Air Temp Water Temp Dewpoint Dewpoint Depression Visibility Wind Speed Wind Dir Waves Ship Positions
date/time (UTC)wind fromknots sea level pressurealtimeterstation pressurevisibilityair tempwater tempwave heightnotes
2014-Jul-23 03:20 250 7 18.0
2014-Jul-23 02:50 250 8 18.0
2014-Jul-23 02:20 240 9 18.0
2014-Jul-23 01:50 230 5 19.0
2014-Jul-23 01:20 220 7 19.0
2014-Jul-23 00:50 220 8 19.0
2014-Jul-23 00:20 220 7 19.0
2014-Jul-22 23:50 180 5 19.0
2014-Jul-22 23:20 180 6 19.0
2014-Jul-22 22:50 190 6 19.0
2014-Jul-22 22:20 130 4 19.0
2014-Jul-22 21:50 140 3 19.0
2014-Jul-22 21:20 140 3 19.0
2014-Jul-22 20:50 150 2 19.0
2014-Jul-22 20:20 110 6 19.0
2014-Jul-22 19:50 080 5 21.0
2014-Jul-22 19:20 070 5 21.0
2014-Jul-22 18:50 070 5 20.0
2014-Jul-22 18:20 040 6 22.0
2014-Jul-22 17:50 010 5 21.0
2014-Jul-22 17:20 030 5 22.0
2014-Jul-22 16:50 010 3 23.0
2014-Jul-22 16:20 010 2 23.0
2014-Jul-22 15:50 040 3 22.0
2014-Jul-22 15:10 050 5 23.0
2014-Jul-22 14:50 060 5 22.0
2014-Jul-22 14:20 040 5 23.0
2014-Jul-22 13:50 040 5 22.0
2014-Jul-22 13:20 030 5 23.0
2014-Jul-22 12:50 050 5 22.0
2014-Jul-22 12:10 050 3 23.0
2014-Jul-22 11:50 040 2 23.0
2014-Jul-22 11:20 030 1 21.0
2014-Jul-22 10:50 060 2 21.0
2014-Jul-22 10:20 030 1 22.0
2014-Jul-22 09:50 010 3 21.0
2014-Jul-22 09:10 350 2 20.0
2014-Jul-22 08:50 350 2 20.0
2014-Jul-22 08:20 280 2 18.0
2014-Jul-22 07:50 260 3 18.0
2014-Jul-22 07:20 270 3 18.0
2014-Jul-22 06:50 260 4 18.0
2014-Jul-22 06:10 230 4 17.0
2014-Jul-22 05:50 230 4 17.0
2014-Jul-22 05:20 250 1 18.0
2014-Jul-22 04:50 310 3 18.0
2014-Jul-22 04:20 280 9 18.0
2014-Jul-22 03:50 270 8 17.0
2014-Jul-22 03:20 260 10 17.0
2014-Jul-22 02:50 260 13 17.0
2014-Jul-22 02:20 260 13 17.0
2014-Jul-22 01:50 250 13 17.0
2014-Jul-22 01:20 250 14 17.0
2014-Jul-22 00:50 240 14 17.0
2014-Jul-22 00:20 240 12 17.0
2014-Jul-21 23:50 240 11 17.0
2014-Jul-21 23:20 240 12 17.0
2014-Jul-21 22:50 250 13 17.0
2014-Jul-21 22:20 240 12 17.0
2014-Jul-21 21:50 220 7 17.0
2014-Jul-21 21:20 220 8 17.0
2014-Jul-21 20:50 210 9 18.0
2014-Jul-21 20:20 180 7 18.0
2014-Jul-21 19:50 150 6 19.0
2014-Jul-21 19:20 170 8 18.0
2014-Jul-21 18:50 090 7 20.0
2014-Jul-21 18:20 090 4 19.0
2014-Jul-21 17:50 020 2 21.0
2014-Jul-21 17:20 110 1 21.0
2014-Jul-21 16:50 130 3 20.0
2014-Jul-21 16:20 20.0
2014-Jul-21 15:50 150 4 20.0
2014-Jul-21 15:10 160 5 19.0
2014-Jul-21 14:50 170 6 19.0
2014-Jul-21 14:20 180 4 20.0
2014-Jul-21 13:50 150 4 20.0
2014-Jul-21 13:20 150 5 20.0
2014-Jul-21 12:50 190 4 20.0
2014-Jul-21 12:10 170 4 19.0
2014-Jul-21 11:50 170 6 19.0
2014-Jul-21 11:20 150 6 19.0
2014-Jul-21 10:50 140 6 19.0
2014-Jul-21 10:20 140 7 20.0
2014-Jul-21 09:50 130 5 19.0
2014-Jul-21 09:10 120 6 19.0
2014-Jul-21 08:40 090 6 21.0
2014-Jul-21 08:20 070 6 19.0
2014-Jul-21 07:50 070 8 19.0
2014-Jul-21 07:20 060 10 19.0
2014-Jul-21 06:50 040 13 19.0
2014-Jul-21 06:10 030 15 18.0
2014-Jul-21 05:50 040 18 19.0
2014-Jul-21 05:20 030 17 18.0